This is the latest recevied weather packets stored in our database for station/object KD8OZS. If no packets are shown the sender has not sent any weather packets the latest 10 day(s).
| Time | Temp. | Humidity | Pressure | Rain* | Wind** | Luminosity | Snow |
|---|---|---|---|---|---|---|---|
| 1787571218 | 10.56° C | 99% | 1009.2 hPa | 0 mm | - | 25 W/m² | - |
| 1787570915 | 10.56° C | 99% | 1009 hPa | 0 mm | - | 23 W/m² | - |
| 1787570610 | 10° C | 99% | 1009.2 hPa | 0 mm | - | 20 W/m² | - |
| 1787570306 | 10° C | 99% | 1009 hPa | 0 mm | - | 17 W/m² | - |
| 1787570002 | 10° C | 99% | 1008.9 hPa | 0 mm | - | 14 W/m² | - |
| 1787569698 | 10° C | 99% | 1008.9 hPa | 0 mm | - | 9 W/m² | - |
| 1787569393 | 10° C | 99% | 1009 hPa | 0 mm | - | 5 W/m² | - |
| 1787569087 | 10° C | 99% | 1009.1 hPa | 0 mm | - | 4 W/m² | - |
| 1787568782 | 10° C | 99% | 1009 hPa | 0 mm | - | 1 W/m² | - |
| 1787568478 | 10° C | 99% | 1008.8 hPa | 0 mm | - | 0 W/m² | - |
| 1787568174 | 10° C | 99% | 1008.9 hPa | 0 mm | - | 0 W/m² | - |
| 1787567869 | 10° C | 99% | 1008.9 hPa | 0 mm | - | 0 W/m² | - |
| 1787567564 | 10° C | 99% | 1008.6 hPa | 0 mm | - | 0 W/m² | - |
| 1787567263 | 10° C | 99% | 1008.5 hPa | 0 mm | - | 0 W/m² | - |
| 1787566962 | 10° C | 99% | 1008.7 hPa | 0 mm | - | 0 W/m² | - |
| 1787566657 | 10.56° C | 99% | 1008.6 hPa | 0 mm | - | 0 W/m² | - |
| 1787566352 | 10.56° C | 99% | 1008.8 hPa | 0 mm | - | 0 W/m² | - |
| 1787566048 | 10.56° C | 99% | 1008.6 hPa | 0 mm | - | 0 W/m² | - |
| 1787565743 | 10.56° C | 99% | 1008.5 hPa | 0 mm | - | 0 W/m² | - |
| 1787565438 | 10.56° C | 99% | 1008.5 hPa | 0 mm | - | 0 W/m² | - |
| 1787565135 | 10° C | 99% | 1008.4 hPa | 0 mm | - | 0 W/m² | - |
| 1787564832 | 10.56° C | 99% | 1008.3 hPa | 0 mm | - | 0 W/m² | - |
| 1787564532 | 10.56° C | 98% | 1008.2 hPa | 0 mm | - | 0 W/m² | - |
| 1787564226 | 10.56° C | 98% | 1008.2 hPa | 0 mm | - | 0 W/m² | - |
| 1787563921 | 10.56° C | 98% | 1008.3 hPa | 0 mm | - | 0 W/m² | - |
* Rain latest hour (hover to see other rain measurements)
** Current wind speed in m/s (hover to see current wind gust speed)